DW9966 Weather Reports


time (UTC)temp
C
wind
direction
speed
KPH
gust
KPH
rain 1hr
cm
rain 24hr
cm
rain mn
cm
humidity
%
barometer
mb
20260507095706 19 226 1.6 12.9 0.00 0.00 0.00 63 1010.7
20260507095206 19 236 3.2 9.7 0.00 0.00 0.00 63 1010.6
20260507094706 18 223 1.6 11.3 0.00 0.00 0.00 64 1010.6
20260507094206 18 265 1.6 14.5 0.00 0.00 0.00 64 1010.6
20260507093706 18 213 1.6 14.5 0.00 0.00 0.00 65 1010.6
20260507093205 18 220 1.6 14.5 0.00 0.00 0.00 63 1010.7
20260507092206 18 221 4.8 14.5 0.00 0.00 0.00 64 1010.6
20260507091706 18 284 8.0 14.5 0.00 0.00 0.00 63 1010.5
20260507091232 19 279 6.4 14.5 0.00 0.00 0.00 63 1010.5
20260507090705 19 313 6.4 14.5 0.00 0.00 0.00 63 1010.3
20260507090206 19 291 3.2 11.3 0.00 0.00 0.00 62 1010.3
20260507085705 19 217 1.6 11.3 0.00 0.00 0.00 63 1010.3
20260507085205 19 246 3.2 14.5 0.00 0.00 0.00 63 1010.2
20260507084705 18 263 4.8 14.5 0.00 0.00 0.00 63 1010.2
20260507084206 18 285 4.8 14.5 0.00 0.00 0.00 63 1010.3
20260507083723 18 252 4.8 12.9 0.00 0.00 0.00 63 1010.3
20260507083206 18 247 1.6 11.3 0.00 0.00 0.00 62 1010.2
20260507082705 18 274 1.6 11.3 0.00 0.00 0.00 62 1010.1
20260507081205 18 236 1.6 9.7 0.00 0.00 0.00 63 1010.1
20260507080705 18 282 1.6 11.3 0.00 0.00 0.00 62 1010.1
20260507080206 18 228 1.6 12.9 0.00 0.00 0.00 63 1010.0
20260507075706 18 254 4.8 12.9 0.00 0.00 0.00 64 1010.0
20260507074706 18 273 4.8 12.9 0.00 0.00 0.00 66 1009.9
20260507074206 17 292 3.2 11.3 0.00 0.00 0.00 66 1009.9
20260507073706 17 240 4.8 11.3 0.00 0.00 0.00 66 1009.9
20260507073205 17 284 3.2 11.3 0.00 0.00 0.00 66 1009.9
20260507072706 17 284 1.6 8.0 0.00 0.00 0.00 66 1009.8
20260507072205 17 265 1.6 8.0 0.00 0.00 0.00 66 1009.8
20260507071705 17 245 1.6 8.0 0.00 0.00 0.00 66 1009.8
20260507071205 17 234 1.6 8.0 0.00 0.00 0.00 65 1009.7
20260507070705 17 224 1.6 8.0 0.00 0.00 0.00 66 1009.7
20260507065705 17 236 1.6 12.9 0.00 0.00 0.00 66 1009.5
20260507065205 17 243 3.2 12.9 0.00 0.00 0.00 66 1009.4
20260507064706 17 246 3.2 12.9 0.00 0.00 0.00 65 1009.5
20260507064206 17 231 1.6 12.9 0.00 0.00 0.00 65 1009.5
20260507063706 17 232 3.2 12.9 0.00 0.00 0.00 64 1009.5
20260507063206 17 275 3.2 11.3 0.00 0.00 0.00 64 1009.5
20260507062205 17 245 1.6 9.7 0.00 0.00 0.00 64 1009.4
20260507061206 17 284 1.6 9.7 0.00 0.00 0.00 66 1009.2
20260507055206 16 220 1.6 11.3 0.00 0.00 0.00 68 1009.0
20260507054705 16 223 1.6 11.3 0.00 0.00 0.00 68 1009.0
20260507053705 16 260 3.2 12.9 0.00 0.00 0.00 69 1008.9
20260507053230 16 208 1.6 9.7 0.00 0.00 0.00 69 1008.8
20260507052705 16 221 1.6 9.7 0.00 0.00 0.00 71 1008.8
20260507052205 16 203 1.6 9.7 0.00 0.00 0.00 70 1008.9
20260507051706 16 217 1.6 9.7 0.00 0.00 0.00 71 1008.8
20260507051205 16 227 1.6 9.7 0.00 0.00 0.00 71 1008.7
20260507050705 16 217 0.0 9.7 0.00 0.00 0.00 71 1008.7
20260507050206 16 238 1.6 9.7 0.00 0.00 0.00 72 1008.7
20260507045705 16 248 1.6 11.3 0.00 0.00 0.00 71 1008.7
20260507044705 15 239 3.2 11.3 0.00 0.00 0.00 72 1008.6
20260507044206 15 260 1.6 9.7 0.00 0.00 0.00 73 1008.5
20260507043705 15 256 1.6 9.7 0.00 0.00 0.00 73 1008.5
20260507043205 15 248 1.6 6.4 0.00 0.00 0.00 74 1008.4
20260507042206 15 241 0.0 1.6 0.00 0.00 0.00 73 1008.3
20260507041705 15 246 0.0 11.3 0.00 0.00 0.00 73 1008.2
20260507041205 15 236 1.6 11.3 0.00 0.00 0.00 73 1008.2
20260507040706 15 231 1.6 11.3 0.00 0.00 0.00 73 1008.1
20260507040205 15 265 0.0 4.8 0.00 0.00 0.00 73 1008.2
20260507035705 15 297 0.0 4.8 0.00 0.00 0.00 73 1008.2
20260507035223 15 254 0.0 3.2 0.00 0.00 0.00 73 1008.1
20260507034705 15 253 0.0 1.6 0.00 0.00 0.00 73 1008.1
20260507034206 15 238 0.0 4.8 0.00 0.00 0.00 73 1008.1
20260507033705 15 242 0.0 4.8 0.00 0.00 0.00 73 1008.1
20260507032705 15 218 0.0 4.8 0.00 0.00 0.00 73 1007.9
20260507031705 15 234 0.0 8.0 0.00 0.00 0.00 72 1007.9
20260507031205 15 215 0.0 11.3 0.00 0.00 0.00 72 1007.9
20260507030706 15 223 1.6 11.3 0.00 0.00 0.00 72 1008.0
20260507025705 15 217 1.6 11.3 0.00 0.00 0.00 73 1008.1
20260507024705 15 215 0.0 6.4 0.00 0.00 0.00 73 1008.1
20260507024205 15 221 0.0 3.2 0.00 0.00 0.00 73 1008.2
20260507023706 15 179 0.0 4.8 0.00 0.00 0.00 72 1008.1
20260507023206 15 178 0.0 4.8 0.00 0.00 0.00 72 1008.1
20260507022705 15 54 0.0 4.8 0.00 0.00 0.00 71 1008.0
20260507022205 15 254 0.0 4.8 0.00 0.00 0.00 71 1008.0
20260507021706 15 254 0.0 11.3 0.00 0.00 0.00 71 1007.9
20260507021206 15 256 1.6 11.3 0.00 0.00 0.00 70 1007.7
20260507020734 15 209 1.6 14.5 0.00 0.00 0.00 70 1007.6
20260507020205 15 215 3.2 14.5 0.00 0.00 0.00 70 1007.6
20260507015706 15 205 4.8 14.5 0.00 0.00 0.00 70 1007.5
20260507015205 15 209 3.2 12.9 0.00 0.00 0.00 70 1007.5
20260507014706 15 208 1.6 12.9 0.00 0.00 0.00 70 1007.6
20260507014205 15 228 0.0 6.4 0.00 0.00 0.00 70 1007.7
20260507013705 15 258 0.0 6.4 0.00 0.00 0.00 70 1007.9
20260507012706 15 229 0.0 9.7 0.00 0.00 0.00 70 1007.9
20260507012205 15 221 0.0 9.7 0.00 0.00 0.00 70 1007.6
20260507011205 15 227 1.6 11.3 0.00 0.00 0.00 69 1007.6
20260507010705 15 214 1.6 11.3 0.00 0.00 0.00 69 1007.4
20260507010206 15 215 0.0 3.2 0.00 0.00 0.00 69 1007.4
20260507005705 15 243 0.0 3.2 0.00 0.00 0.00 68 1007.4
20260507005205 16 240 0.0 4.8 0.00 0.00 0.00 68 1007.4
20260507004706 16 223 0.0 4.8 0.00 0.00 0.00 67 1007.3
20260507003706 16 215 1.6 14.5 0.00 0.00 0.00 67 1007.3
20260507003206 16 204 4.8 14.5 0.00 0.00 0.00 67 1007.3
20260507002706 16 199 8.0 22.5 0.00 0.00 0.00 66 1007.0
20260507002206 16 207 8.0 22.5 0.00 0.00 0.00 66 1007.2
20260507001706 16 217 6.4 22.5 0.00 0.00 0.00 66 1007.3
20260507001206 16 155 6.4 20.9 0.00 0.00 0.00 66 1007.3
20260507000706 16 187 6.4 20.9 0.00 0.00 0.00 67 1007.4
20260507000205 16 216 4.8 17.7 0.00 0.00 0.00 67 1007.4
20260506235205 16 206 3.2 17.7 0.00 0.00 0.00 66 1007.4
20260506234705 16 249 3.2 14.5 0.00 0.00 0.00 66 1007.5
20260506234206 16 202 3.2 17.7 0.00 0.00 0.00 66 1007.4
20260506233705 16 193 4.8 19.3 0.00 0.00 0.00 65 1007.4
20260506233205 16 198 4.8 19.3 0.00 0.00 0.00 65 1007.4
20260506232706 16 227 6.4 19.3 0.00 0.00 0.00 65 1007.4
20260506232205 16 173 6.4 25.7 0.00 0.00 0.00 65 1007.4
20260506231705 16 207 8.0 25.7 0.00 0.00 0.00 65 1007.3
20260506231206 16 182 8.0 17.7 0.00 0.00 0.00 65 1007.3
20260506230705 16 221 6.4 14.5 0.00 0.00 0.00 65 1007.3
20260506230206 16 211 4.8 16.1 0.00 0.00 0.00 65 1007.3
20260506225705 17 202 4.8 17.7 0.00 0.00 0.00 65 1007.3
20260506224706 17 207 6.4 17.7 0.00 0.00 0.00 65 1007.4
20260506224205 17 221 6.4 24.1 0.00 0.00 0.00 65 1007.4
20260506223705 17 202 6.4 24.1 0.00 0.00 0.00 65 1007.4
20260506223205 17 221 8.0 24.1 0.00 0.00 0.00 65 1007.2
20260506222705 17 217 6.4 22.5 0.00 0.00 0.00 64 1007.0
20260506222205 17 202 6.4 22.5 0.00 0.00 0.00 64 1007.0
20260506221706 17 220 4.8 22.5 0.00 0.00 0.00 64 1007.1
20260506221205 17 200 6.4 22.5 0.00 0.00 0.00 64 1007.1
20260506220705 17 219 8.0 22.5 0.00 0.00 0.00 63 1007.0
20260506215706 18 202 6.4 24.1 0.00 0.00 0.00 63 1007.1
20260506215205 18 266 6.4 24.1 0.00 0.00 0.00 63 1007.1
20260506214705 18 186 6.4 24.1 0.00 0.00 0.00 63 1007.1
20260506214206 18 196 4.8 22.5 0.00 0.00 0.00 63 1007.1
20260506213705 18 222 4.8 12.9 0.00 0.00 0.00 63 1007.3
20260506213206 18 192 3.2 12.9 0.00 0.00 0.00 63 1007.2
20260506212705 18 198 3.2 12.9 0.00 0.00 0.00 63 1007.1
20260506212206 18 211 1.6 12.9 0.00 0.00 0.00 63 1007.1
20260506211705 18 219 1.6 11.3 0.00 0.00 0.00 63 1007.1
20260506211206 17 223 1.6 9.7 0.00 0.00 0.00 63 1007.0
20260506210706 17 218 1.6 12.9 0.00 0.00 0.00 62 1006.9
20260506210206 18 209 1.6 12.9 0.00 0.00 0.00 62 1006.9
20260506205705 18 185 3.2 12.9 0.00 0.00 0.00 62 1006.7
20260506204705 18 213 3.2 20.9 0.00 0.00 0.00 61 1006.7
20260506204206 18 200 3.2 22.5 0.00 0.00 0.00 61 1006.7
20260506203705 18 218 4.8 22.5 0.00 0.00 0.00 61 1006.7
20260506202213 18 195 6.4 24.1 0.00 0.00 0.00 60 1006.7
20260506201705 18 217 8.0 19.3 0.00 0.00 0.00 60 1006.7
20260506200705 18 194 6.4 19.3 0.00 0.00 0.00 60 1006.7
20260506195705 18 198 6.4 20.9 0.00 0.00 0.00 60 1006.8
20260506195205 18 217 4.8 20.9 0.00 0.00 0.00 60 1006.7
20260506194706 18 211 4.8 17.7 0.00 0.00 0.00 60 1006.7
20260506194205 18 205 4.8 17.7 0.00 0.00 0.00 59 1006.7
20260506193705 18 221 3.2 16.1 0.00 0.00 0.00 59 1006.7
20260506193205 18 209 4.8 17.7 0.00 0.00 0.00 59 1006.8
20260506192705 18 208 4.8 17.7 0.00 0.00 0.00 58 1006.7
20260506192205 19 218 4.8 24.1 0.00 0.00 0.00 58 1006.6
20260506191705 19 192 8.0 24.1 0.00 0.00 0.00 57 1006.6
20260506191206 19 219 8.0 24.1 0.00 0.00 0.00 57 1006.5
20260506190729 19 202 6.4 22.5 0.00 0.00 0.00 57 1006.5
20260506190206 19 236 8.0 22.5 0.00 0.00 0.00 57 1006.3
20260506185706 19 196 8.0 22.5 0.00 0.00 0.00 56 1006.3
20260506184206 19 171 4.8 17.7 0.00 0.00 0.00 55 1006.1
20260506183705 19 209 6.4 25.7 0.00 0.00 0.00 55 1006.1
20260506182705 20 169 8.0 25.7 0.00 0.00 0.00 53 1006.0
20260506182205 20 225 8.0 24.1 0.00 0.00 0.00 53 1005.9
20260506181705 20 212 9.7 24.1 0.00 0.00 0.00 53 1005.9
20260506181205 20 215 9.7 25.7 0.00 0.00 0.00 52 1005.8
20260506180206 20 210 6.4 25.7 0.00 0.00 0.00 51 1006.0
20260506175706 20 194 3.2 22.5 0.00 0.00 0.00 51 1005.9
20260506175205 20 172 4.8 22.5 0.00 0.00 0.00 51 1005.9
20260506174705 20 263 6.4 22.5 0.00 0.00 0.00 51 1006.0
20260506174206 20 238 4.8 20.9 0.00 0.00 0.00 51 1006.0
20260506173706 20 209 6.4 27.4 0.00 0.00 0.00 51 1006.0
20260506173205 20 165 9.7 27.4 0.00 0.00 0.00 51 1006.0
20260506172706 20 177 11.3 27.4 0.00 0.00 0.00 51 1006.0
20260506172205 20 194 8.0 25.7 0.00 0.00 0.00 51 1006.0
20260506171705 20 223 9.7 25.7 0.00 0.00 0.00 51 1006.1
20260506171206 20 190 12.9 25.7 0.00 0.00 0.00 51 1006.2
20260506170705 20 175 9.7 19.3 0.00 0.00 0.00 51 1006.3
20260506170206 20 173 8.0 19.3 0.00 0.00 0.00 52 1006.3
20260506165705 20 209 8.0 19.3 0.00 0.00 0.00 52 1006.3
20260506165205 20 168 6.4 19.3 0.00 0.00 0.00 52 1006.4
20260506164705 21 153 6.4 20.9 0.00 0.00 0.00 52 1006.4
20260506164206 21 163 8.0 20.9 0.00 0.00 0.00 52 1006.3
20260506163705 21 164 8.0 19.3 0.00 0.00 0.00 52 1006.4
20260506163206 21 155 8.0 19.3 0.00 0.00 0.00 52 1006.3
20260506162705 21 213 6.4 12.9 0.00 0.00 0.00 51 1006.4
20260506162227 21 223 4.8 22.5 0.00 0.00 0.00 51 1006.4
20260506161717 21 194 4.8 27.4 0.00 0.00 0.00 51 1006.5
20260506161208 21 210 9.7 27.4 0.00 0.00 0.00 50 1006.5
20260506160705 21 209 11.3 27.4 0.00 0.00 0.00 49 1006.4
20260506160231 21 205 9.7 29.0 0.00 0.00 0.00 49 1006.5
20260506155730 21 185 9.7 32.2 0.00 0.00 0.00 49 1006.6
20260506155205 21 189 12.9 32.2 0.00 0.00 0.00 49 1006.6
20260506153705 22 168 12.9 38.6 0.00 0.00 0.00 48 1006.8
20260506153205 22 217 12.9 29.0 0.00 0.00 0.00 48 1006.7
20260506152705 22 229 11.3 30.6 0.00 0.00 0.00 49 1006.8
20260506152205 22 221 9.7 30.6 0.00 0.00 0.00 50 1006.8
20260506151706 21 190 9.7 30.6 0.00 0.00 0.00 50 1006.9
20260506151206 21 155 9.7 30.6 0.00 0.00 0.00 50 1006.8
20260506150706 22 213 8.0 30.6 0.00 0.00 0.00 48 1006.8
20260506150205 22 214 11.3 33.8 0.00 0.00 0.00 49 1007.0
20260506145705 22 149 14.5 33.8 0.00 0.00 0.00 49 1006.9
20260506145206 22 182 11.3 33.8 0.00 0.00 0.00 48 1007.0
20260506144207 22 197 8.0 24.1 0.00 0.00 0.00 49 1007.0
20260506143705 22 201 9.7 24.1 0.00 0.00 0.00 49 1007.0
20260506142705 23 235 11.3 29.0 0.00 0.00 0.00 47 1007.1
20260506142205 23 205 14.5 29.0 0.00 0.00 0.00 47 1007.1
20260506141705 22 212 16.1 29.0 0.00 0.00 0.00 48 1007.1
20260506141206 22 223 11.3 20.9 0.00 0.00 0.00 48 1007.1
20260506140705 22 203 8.0 20.9 0.00 0.00 0.00 48 1007.1
20260506140222 23 238 6.4 22.5 0.00 0.00 0.00 47 1007.0
20260506135706 23 224 8.0 22.5 0.00 0.00 0.00 47 1007.1
20260506135205 22 227 8.0 22.5 0.00 0.00 0.00 49 1007.0
20260506134705 22 227 8.0 17.7 0.00 0.00 0.00 49 1007.1
20260506134206 22 225 9.7 17.7 0.00 0.00 0.00 48 1007.1
20260506133205 22 202 8.0 22.5 0.00 0.00 0.00 48 1007.1
20260506132705 22 225 8.0 27.4 0.00 0.00 0.00 48 1007.0
20260506131721 23 186 9.7 27.4 0.00 0.00 0.00 47 1007.0
20260506131205 22 218 6.4 19.3 0.00 0.00 0.00 46 1007.0
20260506130205 23 220 8.0 19.3 0.00 0.00 0.00 46 1007.0
20260506125705 23 227 8.0 16.1 0.00 0.00 0.00 46 1007.0
20260506125205 23 202 6.4 16.1 0.00 0.00 0.00 44 1007.1
20260506124705 24 204 4.8 14.5 0.00 0.00 0.00 44 1007.0
20260506124205 24 227 4.8 14.5 0.00 0.00 0.00 45 1007.1
20260506123705 24 169 4.8 14.5 0.00 0.00 0.00 42 1007.0
20260506123206 25 214 3.2 19.3 0.00 0.00 0.00 43 1007.0
20260506122705 24 262 4.8 19.3 0.00 0.00 0.00 43 1007.0
20260506122205 25 205 4.8 17.7 0.00 0.00 0.00 43 1007.2
20260506121706 24 265 4.8 16.1 0.00 0.00 0.00 43 1007.2
20260506120205 23 198 4.8 14.5 0.00 0.00 0.00 44 1007.2
20260506115705 23 167 4.8 14.5 0.00 0.00 0.00 46 1007.2
20260506115206 23 246 4.8 16.1 0.00 0.00 0.00 46 1007.3
20260506114706 23 246 4.8 16.1 0.00 0.00 0.00 46 1007.2
20260506114206 23 215 4.8 16.1 0.00 0.00 0.00 45 1007.2
20260506113706 23 224 4.8 16.1 0.00 0.00 0.00 45 1007.3
20260506113206 23 205 4.8 12.9 0.00 0.00 0.00 44 1007.2
20260506112705 23 249 3.2 19.3 0.00 0.00 0.00 45 1007.3
20260506112205 24 223 4.8 19.3 0.00 0.00 0.00 45 1007.3
20260506111705 24 275 6.4 17.7 0.00 0.00 0.00 45 1007.4
20260506111205 23 225 6.4 16.1 0.00 0.00 0.00 45 1007.4
20260506110731 24 216 4.8 17.7 0.00 0.00 0.00 45 1007.5
20260506110206 24 257 3.2 17.7 0.00 0.00 0.00 45 1007.4
20260506105705 24 282 3.2 17.7 0.00 0.00 0.00 46 1007.4
20260506105205 24 214 3.2 12.9 0.00 0.00 0.00 46 1007.4
20260506103706 24 234 3.2 9.7 0.00 0.00 0.00 45 1007.6
20260506103205 24 238 3.2 11.3 0.00 0.00 0.00 45 1007.5
20260506102705 24 252 1.6 17.7 0.00 0.00 0.00 45 1007.5
20260506102206 23 236 1.6 17.7 0.00 0.00 0.00 45 1007.5
20260506101205 23 191 3.2 3.2 0.00 0.00 0.00 47 1007.6